SL-24 R/B, 40303

Orbit data source: Space-Track

SL-24 R/B, 40303 is space debris in SSO originally from a launch on Thu, 06 Nov 2014 UTC launched from the Orenburg, Russia (OREN). Debris objects in space refer to the collection of defunct objects orbiting the Earth. Examples of debris include non-operational satellites, rocket bodies, and fragments generated from explosions, collisions, or faulty payload assembly.

Loading next visibility...
Identifier
40303, 2014-070F
Orbit
SSO
Country
Flag of CISCIS
Related business
Manufacturer
Yuzhnoe
Mission
Spacecraft
Bus & Motor
15A18-BR, Unknown motor
Mass
~1,000 kg wet, ~1,000 kg dry
Launch date (UTC)
2014-11-06 (11 years ago)
Launch vehicle
Unknown
Launch site
Orenburg, Russia (OREN)
Object type
Payload
Rocket body
Debris
Shape & HBR
Cyl, 1.5 m
Radar Cross Section
10.603 m², Large (>1 m²)

Expand to show TLE details & history
Last TLE update: 7 hours ago

TLE from 7 hours ago
0 SL-24 R/B
1 40303U 14070F   26035.10698318  .00000263  00000-0  66598-4 0  9993
2 40303  97.1687 332.7870 0948375 165.0024 198.1442 13.15195559539138
Epoch: 2026-02-04T02:34Z
TLE epoch observation values (Epoch: 2026-02-04T02:34:03.346Z)
Latitude
0.00002°
Longitude
159.99474°
Altitude
1,895.164 km
Speed
6.619 km/s
True Right ascension
22h 11m 08s
True Declination
0° 00' 00"
Sunlit
Object was in daylight at epoch
Visualization orbit readout
Latitude
Unknown
Longitude
Unknown
Altitude
Unknown
Speed
Unknown
Apparent Right ascension
Unknown
Apparent Declination
Unknown
Sunlit
N/A
Visualization observer readout
Local Sidereal Time
11:28:48
Azimuth
Unknown
Elevation
Unknown
Doppler factor
Unknown
Orbital elements
Apogee altitude
1,919.048 km
Perigee altitude
481.603 km
Semi-major axis
7,578.463 km
Eccentricity
0.09484
Inclination
97.1687°
RAAN
332.787°
Arg. of periapsis
165.0024°
True anomaly
195.10515°
Mean anomaly
198.1442°
Eccentric anomaly
196.59251°
Mean motion
3.28982 °/min
Orbital period
109.43 mins
BSTAR
0.000066598
Loading maneuver chart data...
Computing Atmospheric mass density...
Loading historical data...
Loading historical data...
Loading historical data...
Loading historical data...
Loading historical data...
Loading historical data...
Loading historical data...

Documentation

Showing up to 5 results
|